Tappahannock, VA

2:34 PM EST on February 21, 2018 (GMT -0500)
Tappahannock

Weather History for KXSA - November, 2012

Change the Weather History Date:

Sunday, November 18, 2012

  Actual Average (KOFP) Record (KOFP)
Temperature  
Mean Temperature 50 °F -  
Max Temperature 55 °F 58 °F 79 °F (1953)
Min Temperature 44 °F 33 °F 13 °F (1959)
Degree Days  
Heating Degree Days 16    
Moisture  
Dew Point 40 °F    
Average Humidity 70    
Maximum Humidity 85    
Minimum Humidity 58    
Precipitation  
Precipitation 0.00 in - - ()
Sea Level Pressure  
Sea Level Pressure 30.51 in    
Wind  
Wind Speed 6 mph (North)    
Max Wind Speed 12 mph    
Max Gust Speed 17 mph    
Visibility 10 miles    
Events      
Averages and records for this station are not official NWS values.
T = Trace of Precipitation, MM = Missing Value Source: NWS Daily Summary

Daily Weather History Graph

Daily Weather History Graph

Search for Another Location

Airport or City:

Trip Planner

Search our weather history database for the weather conditions in past years. The results will help you decide how hot, cold, wet, or windy it might be!

Date:

Astronomy

Nov. 18, 2012 Rise Set
Actual Time 6:51 AM EST 4:53 PM EST
Civil Twilight 6:23 AM EST 5:21 PM EST
Nautical Twilight 5:51 AM EST 5:53 PM EST
Astronomical Twilight 5:20 AM EST 6:25 PM EST
Moon 11:18 AM EST (11/18) 10:09 PM EST (11/18)
Length of Visible Light 10h 58m
Length of Day
10h 02m
Waxing Crescent, 30% of the Moon is Illuminated
Nov 18
Waxing Crescent
Nov 20
First Quarter
Nov 28
Full
Dec 6
Last Quarter
Dec 13
New

Hourly Weather History & Observations

Time (EST) Temp. Windchill Dew Point Humidity Pressure Visibility Wind Dir Wind Speed Gust Speed Precip Events Conditions
12:15 AM 45.5 °F 42.5 °F 40.3 °F 82% 30.54 in 10.0 mi North 5.8 mph - N/A   Overcast
12:35 AM 45.5 °F 43.2 °F 40.3 °F 82% 30.54 in 10.0 mi NNE 4.6 mph - N/A   Overcast
12:55 AM 46.0 °F 43.9 °F 40.3 °F 80% 30.54 in 10.0 mi North 4.6 mph - N/A   Overcast
1:15 AM 46.4 °F 42.9 °F 40.3 °F 79% 30.53 in 10.0 mi North 6.9 mph - N/A   Overcast
1:35 AM 46.0 °F 43.1 °F 40.1 °F 80% 30.53 in 10.0 mi North 5.8 mph - N/A   Mostly Cloudy
1:55 AM 45.3 °F 44.0 °F 40.1 °F 82% 30.53 in 10.0 mi North 3.5 mph - N/A   Mostly Cloudy
2:15 AM 44.6 °F 43.1 °F 40.3 °F 85% 30.52 in 10.0 mi North 3.5 mph - N/A   Mostly Cloudy
2:35 AM 44.6 °F 41.4 °F 40.5 °F 85% 30.52 in 10.0 mi North 5.8 mph - N/A   Mostly Cloudy
2:55 AM 45.1 °F 42.0 °F 40.5 °F 84% 30.53 in 10.0 mi North 5.8 mph - N/A   Mostly Cloudy
3:15 AM 45.9 °F 42.9 °F 40.5 °F 81% 30.52 in 10.0 mi North 5.8 mph - N/A   Overcast
3:35 AM 45.7 °F 42.0 °F 40.5 °F 82% 30.52 in 10.0 mi North 6.9 mph - N/A   Overcast
3:55 AM 45.1 °F 41.4 °F 40.1 °F 82% 30.52 in 10.0 mi North 6.9 mph - N/A   Scattered Clouds
4:15 AM 45.1 °F 42.0 °F 40.1 °F 82% 30.52 in 10.0 mi North 5.8 mph - N/A   Clear
4:35 AM 44.8 °F 41.6 °F 39.7 °F 82% 30.52 in 10.0 mi North 5.8 mph - N/A   Clear
4:55 AM 44.8 °F 42.4 °F 39.6 °F 82% 30.53 in 10.0 mi North 4.6 mph - N/A   Clear
5:15 AM 44.6 °F 41.4 °F 39.6 °F 82% 30.53 in 10.0 mi NNW 5.8 mph - N/A   Clear
5:35 AM 44.6 °F 40.7 °F 39.6 °F 82% 30.53 in 10.0 mi North 6.9 mph - N/A   Clear
5:55 AM 44.6 °F 40.7 °F 39.4 °F 82% 30.53 in 10.0 mi North 6.9 mph - N/A   Clear
6:15 AM 44.6 °F 40.7 °F 39.2 °F 81% 30.53 in 10.0 mi North 6.9 mph - N/A   Clear
6:35 AM 44.6 °F 42.2 °F 39.2 °F 81% 30.53 in 10.0 mi North 4.6 mph - N/A   Clear
6:55 AM 44.2 °F 41.8 °F 38.8 °F 81% 30.54 in 10.0 mi North 4.6 mph - N/A   Clear
7:15 AM 44.6 °F 41.4 °F 38.8 °F 80% 30.54 in 10.0 mi North 5.8 mph - N/A   Clear
7:35 AM 45.0 °F 41.8 °F 39.2 °F 80% 30.55 in 10.0 mi North 5.8 mph - N/A   Clear
7:55 AM 46.2 °F 42.7 °F 39.2 °F 76% 30.55 in 10.0 mi North 6.9 mph - N/A   Clear
8:15 AM 47.1 °F - 39.2 °F 74% 30.55 in 10.0 mi North 8.1 mph - N/A   Clear
8:35 AM 47.3 °F - 39.4 °F 74% 30.54 in 10.0 mi NNE 9.2 mph - N/A   Clear
8:55 AM 49.1 °F - 39.9 °F 71% 30.54 in 10.0 mi North 8.1 mph - N/A   Clear
9:15 AM 49.6 °F - 39.9 °F 69% 30.55 in 10.0 mi North 5.8 mph - N/A   Clear
9:35 AM 50.2 °F - 40.1 °F 68% 30.54 in 10.0 mi North 8.1 mph - N/A   Clear
9:55 AM 51.8 °F - 40.3 °F 65% 30.55 in 10.0 mi NNE 8.1 mph - N/A   Clear
10:15 AM 52.5 °F - 40.3 °F 63% 30.54 in 10.0 mi NNE 10.4 mph - N/A   Clear
10:35 AM 53.1 °F - 40.3 °F 62% 30.54 in 10.0 mi North 5.8 mph - N/A   Clear
10:55 AM 54.5 °F - 40.5 °F 59% 30.54 in 10.0 mi NNE 5.8 mph - N/A   Clear
11:15 AM 54.7 °F - 40.6 °F 59% 30.53 in 10.0 mi North 5.8 mph 9.2 mph N/A   Clear
11:35 AM 54.5 °F - 40.3 °F 59% 30.52 in 10.0 mi NNE 9.2 mph - N/A   Clear
11:55 AM 54.7 °F - 40.5 °F 59% 30.51 in 10.0 mi North 6.9 mph - N/A   Clear
12:15 PM 54.9 °F - 40.6 °F 59% 30.50 in 10.0 mi North 8.1 mph - N/A   Clear
12:35 PM 55.2 °F - 40.8 °F 58% 30.49 in 10.0 mi NNE 6.9 mph - N/A   Clear
12:55 PM 54.9 °F - 40.8 °F 59% 30.49 in 10.0 mi North 9.2 mph - N/A   Clear
1:15 PM 54.5 °F - 40.5 °F 59% 30.49 in 10.0 mi North 9.2 mph - N/A   Clear
1:35 PM 54.9 °F - 40.8 °F 59% 30.48 in 10.0 mi North 5.8 mph - N/A   Clear
1:55 PM 54.5 °F - 40.8 °F 60% 30.48 in 10.0 mi North 6.9 mph - N/A   Clear
2:15 PM 55.0 °F - 41.0 °F 59% 30.47 in 10.0 mi North 6.9 mph - N/A   Clear
2:35 PM 54.7 °F - 40.6 °F 59% 30.47 in 10.0 mi NNE 11.5 mph 16.1 mph N/A   Scattered Clouds
2:55 PM 54.5 °F - 40.6 °F 60% 30.48 in 10.0 mi North 5.8 mph - N/A   Scattered Clouds
3:15 PM 53.8 °F - 40.5 °F 61% 30.48 in 10.0 mi NNE 8.1 mph - N/A   Overcast
3:35 PM 53.4 °F - 40.8 °F 62% 30.48 in 10.0 mi North 8.1 mph - N/A   Overcast
3:55 PM 52.7 °F - 40.5 °F 63% 30.48 in 10.0 mi North 4.6 mph - N/A   Overcast
4:15 PM 52.3 °F - 40.3 °F 64% 30.48 in 10.0 mi North 6.9 mph - N/A   Overcast
4:35 PM 51.8 °F - 40.3 °F 65% 30.48 in 10.0 mi North 6.9 mph - N/A   Overcast
4:55 PM 51.1 °F - 40.3 °F 67% 30.47 in 10.0 mi North 5.8 mph - N/A   Mostly Cloudy
5:15 PM 50.2 °F - 40.3 °F 69% 30.47 in 10.0 mi North 3.5 mph - N/A   Scattered Clouds
5:35 PM 50.4 °F - 40.5 °F 69% 30.47 in 10.0 mi North 3.5 mph - N/A   Mostly Cloudy
5:55 PM 50.5 °F - 40.5 °F 68% 30.48 in 10.0 mi North 5.8 mph - N/A   Overcast
6:15 PM 50.9 °F - 40.5 °F 67% 30.48 in 10.0 mi North 6.9 mph - N/A   Overcast
6:35 PM 50.9 °F - 40.5 °F 67% 30.48 in 10.0 mi North 5.8 mph - N/A   Overcast
6:55 PM 50.9 °F - 40.3 °F 67% 30.49 in 10.0 mi NNE 6.9 mph - N/A   Overcast
7:15 PM 50.9 °F - 40.3 °F 67% 30.48 in 10.0 mi North 8.1 mph - N/A   Overcast
7:35 PM 50.9 °F - 40.1 °F 67% 30.48 in 10.0 mi NNE 9.2 mph - N/A   Overcast
7:55 PM 50.9 °F - 40.1 °F 67% 30.48 in 10.0 mi North 8.1 mph - N/A   Overcast
8:15 PM 50.7 °F - 40.1 °F 67% 30.48 in 10.0 mi North 3.5 mph - N/A   Overcast
8:35 PM 50.5 °F - 39.7 °F 66% 30.48 in 10.0 mi NNE 8.1 mph 17.3 mph N/A   Overcast
8:55 PM 50.4 °F - 39.4 °F 66% 30.48 in 10.0 mi NNE 5.8 mph - N/A   Overcast
9:15 PM 50.4 °F - 39.4 °F 66% 30.48 in 10.0 mi North 8.1 mph - N/A   Overcast
9:35 PM 50.4 °F - 39.4 °F 66% 30.47 in 10.0 mi NNE 9.2 mph - N/A   Overcast
9:55 PM 50.2 °F - 39.2 °F 66% 30.47 in 10.0 mi North 6.9 mph - N/A   Overcast
10:15 PM 50.0 °F - 39.2 °F 66% 30.47 in 10.0 mi North 6.9 mph - N/A   Overcast
10:35 PM 50.0 °F - 39.2 °F 66% 30.47 in 10.0 mi North 9.2 mph - N/A   Overcast
10:55 PM 49.5 °F - 39.2 °F 68% 30.46 in 10.0 mi North 5.8 mph - N/A   Overcast
11:35 PM 49.1 °F - 39.4 °F 69% 30.45 in 10.0 mi North 8.1 mph - N/A   Overcast
11:55 PM 49.1 °F - 39.6 °F 70% 30.44 in 10.0 mi North 9.2 mph - N/A   Overcast